| time (UTC) | temp F | wind direction | speed MPH | gust MPH | rain 1hr in | rain 24hr in | rain mn in | humidity % | barometer mb |
| 20260831210206 | 65 | 319 | 0.0 | 1.0 | 0.00 | 0.26 | 0.23 | 60 | 1017.1 |
| 20260831200206 | 67 | 321 | 0.0 | 0.0 | 0.00 | 0.26 | 0.23 | 55 | 1016.7 |
| 20260831190206 | 69 | 321 | 0.0 | 0.0 | 0.00 | 0.26 | 0.23 | 50 | 1016.3 |
| 20260831180208 | 72 | 330 | 0.0 | 3.0 | 0.00 | 0.26 | 0.23 | 46 | 1015.4 |
| 20260831170206 | 74 | 236 | 1.0 | 15.0 | 0.00 | 0.26 | 0.23 | 39 | 1015.4 |
| 20260831150207 | 77 | 0 | 7.0 | 15.0 | 0.00 | 0.26 | 0.23 | 41 | 1014.9 |
| 20260831140206 | 79 | 305 | 4.0 | 14.0 | 0.00 | 0.26 | 0.23 | 40 | 1014.3 |
| 20260831130207 | 81 | 352 | 1.0 | 10.0 | 0.00 | 0.26 | 0.23 | 35 | 1014.6 |
| 20260831120208 | 79 | 269 | 6.0 | 15.0 | 0.00 | 0.26 | 0.23 | 38 | 1014.8 |
| 20260831110207 | 77 | 306 | 4.0 | 14.0 | 0.00 | 0.26 | 0.23 | 44 | 1015.3 |
| 20260831090211 | 71 | 195 | 0.0 | 13.0 | 0.00 | 0.26 | 0.23 | 60 | 1015.4 |
| 20260831080206 | 67 | 244 | 1.0 | 7.0 | 0.00 | 0.26 | 0.23 | 75 | 1014.9 |
| 20260831070207 | 63 | 330 | 0.0 | 2.0 | 0.00 | 0.26 | 0.23 | 87 | 1014.4 |
| 20260831050207 | 62 | 1 | 0.0 | 5.0 | 0.00 | 0.26 | 0.23 | 91 | 1013.7 |
| 20260831040206 | 63 | 237 | 0.0 | 5.0 | 0.00 | 0.26 | 0.23 | 94 | 1013.3 |
| 20260831030206 | 65 | 182 | 0.0 | 0.0 | 0.00 | 0.26 | 0.23 | 95 | 1012.8 |
| 20260831020210 | 65 | 182 | 0.0 | 0.0 | 0.00 | 0.26 | 0.23 | 95 | 1012.4 |
| 20260831010207 | 65 | 182 | 0.0 | 0.0 | 0.00 | 0.26 | 0.23 | 94 | 1012.4 |
| 20260831000220 | 65 | 313 | 0.0 | 0.0 | 0.14 | 0.26 | 0.23 | 93 | 1012.1 |
| 20260830230209 | 66 | 335 | 0.0 | 1.0 | 0.09 | 0.12 | 0.09 | 91 | 1012.4 |